EW5447 Weather Reports


Display with metric or nautical units.
time (UTC)temp
F
wind
direction
speed
MPH
gust
MPH
rain 1hr
in
rain 24hr
in
rain mn
in
humidity
%
barometer
mb
20260905143021 45 304 0.0 0.0 0.00 0.00 0.00 94 1018.4
20260905141518 44 92 0.0 0.0 0.00 0.00 0.00 93 1018.1
20260905140016 44 92 0.0 0.0 0.00 0.00 0.00 93 1018.1
20260905134513 44 11 0.0 0.0 0.00 0.01 0.00 93 1017.9
20260905133010 44 9 0.0 0.0 0.00 0.01 0.00 92 1017.9
20260905131511 45 340 0.0 0.0 0.00 0.01 0.00 93 1017.7
20260905130007 45 315 0.0 0.0 0.00 0.01 0.00 93 1017.6
20260905124506 45 288 0.0 0.0 0.00 0.03 0.00 92 1017.7
20260905123003 46 103 0.0 0.0 0.00 0.03 0.00 92 1017.8
20260905121502 46 103 0.0 0.0 0.00 0.03 0.00 92 1017.7
20260905114603 47 103 0.0 0.0 0.00 0.03 0.00 93 1017.8
20260905113058 47 103 0.0 0.0 0.00 0.03 0.00 93 1017.8
20260905111558 47 112 0.0 0.0 0.00 0.03 0.00 93 1017.7
20260905110058 47 112 0.0 0.0 0.00 0.03 0.00 93 1017.8
20260905104556 47 112 0.0 0.0 0.00 0.03 0.00 93 1017.8
20260905103101 47 133 0.0 0.0 0.00 0.03 0.00 93 1017.8
20260905101602 47 133 0.0 0.0 0.00 0.03 0.00 93 1017.8
20260905100120 47 82 0.0 0.0 0.00 0.03 0.00 93 1017.7
20260905094552 47 9 0.0 0.0 0.00 0.03 0.00 93 1017.6
20260905093051 47 48 0.0 0.0 0.00 0.03 0.00 92 1017.6
20260905091557 47 310 0.0 0.0 0.00 0.03 0.00 92 1017.6
20260905090049 47 41 0.0 0.0 0.00 0.03 0.00 91 1017.6
20260905084552 47 355 0.0 0.0 0.00 0.03 0.00 90 1017.5
20260905083104 47 244 0.0 0.0 0.00 0.03 0.00 90 1017.5
20260905081544 48 268 0.0 0.0 0.00 0.03 0.00 89 1017.5
20260905080042 48 32 0.0 0.0 0.00 0.03 0.00 89 1017.4
20260905074541 48 28 0.0 2.0 0.00 0.03 0.00 89 1017.4
20260905073040 49 180 0.0 0.0 0.00 0.03 0.00 88 1017.4
20260905071536 49 258 0.0 2.0 0.00 0.03 0.00 88 1017.3
20260905070032 50 53 0.0 0.0 0.00 0.03 0.00 89 1017.1
20260905064532 50 31 0.0 0.0 0.00 0.03 0.03 88 1017.0
20260905063033 50 203 0.0 0.0 0.00 0.03 0.03 88 1017.1
20260905061530 50 189 0.0 0.0 0.00 0.03 0.03 87 1017.1
20260905060040 51 321 0.0 0.0 0.00 0.03 0.03 85 1016.9
20260905054557 52 321 0.0 0.0 0.00 0.03 0.03 84 1016.9
20260905053027 52 55 0.0 0.0 0.00 0.03 0.03 84 1017.0
20260905051527 52 34 0.0 0.0 0.00 0.03 0.03 85 1016.9
20260905050027 53 49 0.0 1.0 0.00 0.03 0.03 81 1016.9
20260905044526 54 343 0.0 0.0 0.00 0.03 0.03 79 1016.9
20260905043023 55 246 0.0 0.0 0.00 0.03 0.03 78 1016.8
20260905041526 56 9 0.0 0.0 0.00 0.03 0.03 75 1016.5
20260905040021 57 102 0.0 0.0 0.00 0.03 0.03 74 1016.5
20260905034519 57 102 0.0 0.0 0.00 0.03 0.03 72 1016.3
20260905033018 58 65 0.0 0.0 0.00 0.03 0.03 70 1016.0
20260905031514 59 321 0.0 2.0 0.00 0.03 0.03 68 1015.8
20260905030014 60 313 2.0 4.0 0.00 0.03 0.03 66 1015.6
20260905024514 61 300 1.0 3.0 0.00 0.03 0.03 63 1015.5
20260905023011 62 301 2.0 5.0 0.00 0.03 0.03 61 1015.5
20260905021509 63 278 4.0 9.0 0.00 0.03 0.03 59 1015.4
20260905020008 64 297 0.0 2.0 0.00 0.03 0.03 60 1015.3
20260905014507 63 304 2.0 5.0 0.00 0.03 0.03 60 1015.0
20260905013013 63 283 1.0 5.0 0.00 0.03 0.03 59 1015.1
20260905011506 63 235 4.0 8.0 0.00 0.03 0.03 59 1015.0
20260905010013 63 279 2.0 4.0 0.00 0.03 0.03 61 1015.1
20260905004504 62 300 2.0 8.0 0.00 0.03 0.03 62 1015.1
20260905003002 63 275 8.0 13.0 0.00 0.03 0.03 60 1014.9
20260905001602 63 246 6.0 11.0 0.00 0.03 0.03 59 1014.9
20260905000100 64 232 10.0 16.0 0.00 0.03 0.03 58 1014.8
20260904234600 66 282 7.0 15.0 0.00 0.03 0.03 54 1014.6
20260904233106 66 257 0.0 3.0 0.00 0.03 0.03 50 1014.4
20260904231606 67 271 1.0 4.0 0.00 0.03 0.03 51 1014.3
20260904230057 67 321 1.0 5.0 0.00 0.03 0.03 50 1014.2
20260904224557 67 342 3.0 9.0 0.00 0.03 0.03 51 1014.3
20260904223057 67 38 2.0 9.0 0.00 0.03 0.03 50 1014.3
20260904221604 68 5 1.0 5.0 0.00 0.03 0.03 50 1014.3
20260904220058 66 270 0.0 4.0 0.00 0.03 0.03 51 1014.4
20260904214553 66 196 0.0 5.0 0.00 0.03 0.03 54 1014.4
20260904213051 67 209 3.0 10.0 0.00 0.03 0.03 51 1014.4
20260904211548 65 113 3.0 7.0 0.00 0.03 0.03 55 1014.4
20260904210052 64 180 2.0 5.0 0.00 0.03 0.03 57 1014.4
20260904204544 64 138 2.0 5.0 0.00 0.03 0.03 57 1014.5
20260904203052 64 115 2.0 4.0 0.00 0.03 0.03 55 1014.3
20260904201543 64 49 1.0 3.0 0.00 0.03 0.03 56 1014.4
20260904200056 64 223 1.0 5.0 0.00 0.03 0.03 56 1014.4
20260904194540 63 248 2.0 4.0 0.00 0.03 0.03 57 1014.6
20260904193038 63 257 1.0 5.0 0.00 0.03 0.03 61 1014.7
20260904191536 62 146 1.0 3.0 0.00 0.03 0.03 64 1014.7
20260904190033 62 321 0.0 3.0 0.00 0.03 0.03 63 1014.8
20260904184537 62 219 1.0 3.0 0.00 0.03 0.03 65 1014.8
20260904183034 62 343 1.0 4.0 0.00 0.03 0.03 65 1014.8
20260904181528 61 313 0.0 2.0 0.00 0.03 0.03 68 1014.8
20260904180037 61 303 0.0 4.0 0.00 0.03 0.03 69 1014.8
20260904174521 58 240 0.0 2.0 0.00 0.03 0.03 81 1014.8
20260904173017 56 101 0.0 2.0 0.00 0.03 0.03 82 1014.8
20260904171515 56 333 0.0 2.0 0.00 0.03 0.03 85 1014.7
20260904170012 55 269 0.0 2.0 0.00 0.03 0.03 87 1014.6
20260904164508 54 257 0.0 2.0 0.00 0.03 0.03 87 1014.5
20260904163014 53 140 0.0 2.0 0.00 0.03 0.03 89 1014.5
20260904161502 53 223 1.0 2.0 0.00 0.03 0.03 90 1014.5
20260904160059 52 306 0.0 2.0 0.00 0.03 0.03 90 1014.4
20260904154601 51 329 0.0 0.0 0.00 0.03 0.03 91 1014.3
20260904153057 51 306 0.0 1.0 0.00 0.03 0.03 91 1014.3
20260904151552 51 346 0.0 2.0 0.00 0.03 0.03 92 1014.2
20260904150047 50 325 0.0 2.0 0.00 0.03 0.03 92 1014.0
20260904144543 50 299 0.0 0.0 0.00 0.04 0.03 92 1013.9